IOR-W (EGNOS/PRN 126)

Last updated on Nov. 15, 2019, 4:21 a.m. UTC

1 28899U 05044A   19318.56843977  .00000023  00000-0  00000+0 0  9994
2 28899   2.9330  28.1352 0003258 215.3648  78.4403  1.00272694 51365
UTC
Height (km)
Latitude
Longitude
Inclination
Orbital Period
UTC large
Height (km)
Speed (km/s)
/
Latitude / Longitude
Inclination (degrees)
Orbital Period (minutes)
Azimuth
Elevation
Range (km)
Doppler Factor
iOS Compass Heading
iOS Angle

Next 30 passes for location: Hong Kong

Rise time Rise Azimuth (degrees) Set time Set Azimuth (degrees) Duration Max altitude (degrees)

No matching passes for this satellites